Notices

What's New in latest Release from April 7th, 2021:

- Updated Glossary, including Speed of Maximum Gust, and Total Hourly Precipitation

- Updated national and regional climate services offices contacts and prices information

- Addition of station inventory lists for 1981-2010, 1971-2000, and 1961-1990 Normals.

Please note that as of June 10, 2021 UTC dates are available for all years 2004-present, and DBA is working on populating the remaining years (2003 to 1953).

If you haven't already, please take our survey and provide feedback about our website: https://eccc.sondage-survey.ca/f/LanguageSelection.aspx?s=442ca660-fcf1-47c0-95a9-59707d6fd709

Hourly Data Report for April 02, 2021

ALGONQUIN PARK EAST GATE
ONTARIO
Current Station Operator: ECCC - MSC

45°32'00.000" N
78°16'00.000" W
397.00 m
6080192
71581
TNK

Download Data

Hourly Data (April 2021)
Hourly Data Report for April 2, 2021
TIME
LST
Temp Definition
°C
Dew Point Definition
°C
Rel Hum Definition
%
Precip. Amount Definition
mm

Wind Dir Definition
10's deg

Wind Spd Definition
km/h
Visibility Definition
km
Stn Press Definition
kPa
Hmdx Definition


Wind Chill Definition


Weather Definition


00:00 -6.2 -17.8 39 0.0 1 8   97.53   -10 LegendNANA
01:00 -6.8 -17.5 42 0.0 35 7   97.57   -10 LegendNANA
02:00 -7.4 -18.1 42 0.0 36 9   97.59   -12 LegendNANA
03:00 -8.0 -17.7 45 0.0 36 6   97.61   -11 LegendNANA
04:00 -8.5 -17.7 47 0.0 35 6   97.68   -12 LegendNANA
05:00 -9.0 -17.5 50 0.0 35 6   97.74   -12 LegendNANA
06:00 -9.5 -17.8 51 0.0 34 5   97.81   -12 LegendNANA
07:00 -8.7 -17.9 47 0.0 36 7   97.87   -13 LegendNANA
08:00 -7.1 -18.7 39 0.0 35 9   97.91   -11 LegendNANA
09:00 -5.2 -18.8 33 0.0 34 9   97.92   -9 LegendNANA
10:00 -3.9 -19.1 30 0.0 36 8   97.91   -7 LegendNANA
11:00 -2.3 -19.4 26 0.0 35 10   97.86   -6 LegendNANA
12:00 -1.1 -19.5 23 0.0 31 9   97.80   -4 LegendNANA
13:00 0.1 -18.1 24 0.0 34 9   97.76     LegendNANA
14:00 0.3 -20.1 20 0.0 34 8   97.73     LegendNANA
15:00 0.8 -19.4 20 0.0 36 10   97.67     LegendNANA
16:00 1.2 -18.8 21 0.0 35 7   97.65     LegendNANA
17:00 0.8 -19.0 21 0.0 34 8   97.65     LegendNANA
18:00 0.2 -20.1 20 0.0 34 4   97.65     LegendNANA
19:00 -2.4 -17.0 32 0.0 0 1   97.66   -3 LegendNANA
20:00 -4.1 -14.9 43 0.0   0   97.67     LegendNANA
21:00 -5.7 -13.0 56 0.0   0   97.67     LegendNANA
22:00 -7.2 -12.9 64 0.0   0   97.66     LegendNANA
23:00 -8.4 -12.6 71 0.0   0   97.68     LegendNANA

Notes on Data Quality.

Legend

  • E = Estimated
  • M = Missing
  • NA = Not Available*
  • [empty] = Indicates an unobserved value
Date modified: